Regional Weather Roundup
Issued by NWS

Home | Current Version | Previous Version | Graphics & Text | Print | Product List | Glossary On
Versions: 1 2 3 4 5 6 7 8 9 10 11 12 13 14 15 16 17 18 19 20 21 22 23 24 25 26 27 28 29 30 31 32 33 34 35 36 37 38 39 40 41 42 43 44 45 46 47 48 49 50
000
ASUS43 KDTX 270410
RWRMI
MICHIGAN HOURLY REGIONAL WEATHER ROUNDUP
NATIONAL WEATHER SERVICE DETROIT/PONTIAC MI
1100 PM EST MON JAN 26 2015

NOTE: "FAIR" INDICATES FEW OR NO CLOUDS BELOW 12,000 FEET WITH NO
SIGNIFICANT WEATHER AND/OR OBSTRUCTION TO VISIBILITY.

MIZ047>049-052>055-059>063-066>070-074>076-081>083-270500-
SOUTHEAST LOWER MICHIGAN

CITY           SKY/WX    TMP DP  RH WIND       PRES   REMARKS
ADRIAN         CLEAR     14   9  80 SE5       29.97F WCI   6
ALMA           CLOUDY    17  13  86 E7        29.99S WCI   7
ANN ARBOR      CLEAR     13   8  81 CALM      29.96F
BAD AXE        CLEAR      6   4  91 NE3       30.00R
CARO           CLEAR      9   6  90 CALM      29.99S
DETROIT CITY   CLOUDY    19  11  70 NE3       29.98F
DETROIT        PTCLDY    16  10  77 N3        29.98F
FLINT          CLEAR     14   9  80 E3        29.98S
GROSSE ILE     CLEAR     10   9  92 CALM      29.97S
HILLSDALE      CLEAR     13   7  76 CALM      29.91F
HOWELL         CLEAR     14  10  84 NE3       29.95S

CITY           SKY/WX    TMP DP  RH WIND       PRES   REMARKS
JACKSON        CLEAR     16   8  71 E6        29.93F WCI   7
LAMBERTVILLE   MOCLDY    12   9  85 CALM      29.97F
LANSING        CLOUDY    16  11  80 E5        29.97S WCI   9
LAPEER         FAIR      16  10  78 CALM      29.98S
MASON          CLEAR     15   9  76 E5        29.94F WCI   8
MONROE         CLEAR     12  10  92 CALM      29.96F
MT. CLEMENS    CLOUDY    17  12  78 NE7       29.96S WCI   8
PONTIAC        PTCLDY    13   8  81 NE3       29.94F
PORT HOPE        N/A     18   8  65 E14       30.00S WCI   4
PORT HURON     PTCLDY    14   9  79 CALM      29.99S
TRI CITIES     CLEAR     15   8  73 NE3       30.00S
TROY           CLEAR     18  12  75 NE5       29.99F WCI  11
SAGINAW HB     PTCLDY    14  12  92 NE3       29.99F
$$
MIZ043>046-050>051-056>058-064>065-071>073-077>080-270500-
SOUTHWEST LOWER MICHIGAN

CITY           SKY/WX    TMP DP  RH WIND       PRES   REMARKS
BATTLE CREEK   CLOUDY    23   7  50 E6        29.94S WCI  16
BENTON HARBOR  CLOUDY    22  14  71 SE3       29.93F
BIG RAPIDS     CLOUDY    18  12  77 E6        29.96S WCI  10
COLDWATER      MOCLDY    16  10  78 CALM      29.93S
FREMONT        CLOUDY    19   5  54 E7        29.97R WCI  10
HOLLAND        CLOUDY    22  11  62 E8        29.95S WCI  12
GRAND RAPIDS   CLOUDY    19  10  68 E7        29.96S WCI  10
IONIA          FAIR      18  13  82 E8        29.95S WCI   7
KALAMAZOO      CLOUDY    22   6  50 E3        29.94S
LUDINGTON      CLOUDY    22   7  53 SE6       29.97S WCI  14
MARSHALL       MOCLDY    19   9  65 CALM      29.93S
MOUNT PLEASANT CLOUDY    17  11  78 CALM      29.98S
MUSKEGON       CLOUDY    22   9  57 E8        29.97R WCI  12
SOUTH HAVEN    CLOUDY    24   8  50 SE3       29.94S
$$
MIZ016>042-270500-
NORTHERN LOWER MICHIGAN

CITY           SKY/WX    TMP DP  RH WIND       PRES   REMARKS
ALPENA         CLOUDY    19  12  74 E8        30.04R WCI   9
BEAVER ISLAND  CLOUDY    20  13  72 CALM      30.03R
BELLAIRE       CLOUDY    19  11  70 E3        30.02R
CADILLAC       CLOUDY    16  10  76 E8        29.94S WCI   6
CHARLEVOIX     CLOUDY    19  12  75 E8        30.05R WCI   9
FRANKFORT      CLOUDY    21   9  61 SE5       29.98S WCI  14
GAYLORD        CLOUDY    15  10  80 CALM      29.96S
GRAYLING       CLOUDY    16  11  83 E5        29.98S WCI   8
HARBOR SPRINGS CLOUDY    17  11  77 E5        30.02R WCI  10
HOUGHTON LAKE  CLOUDY    14  10  84 E6        29.97S WCI   5
MANISTEE       CLOUDY    21   7  53 SE5       29.98S WCI  15
OSCODA         MOCLDY    21  11  65 E5        30.01S WCI  14
PELLSTON       CLOUDY    18  10  71 E3        30.04R
ROGERS CITY    FLURRIES  19  15  84 E10       30.05S WCI   7
TRAVERSE CITY  CLOUDY    21  10  62 SE7       29.99R WCI  12
$$
MIZ007>008-015-270500-
EASTERN UPPER MICHIGAN

CITY           SKY/WX    TMP DP  RH WIND       PRES   REMARKS
KINROSS        CLOUDY    10   3  72 E15       30.05R WCI  -6
MACKINAC ISLAN LGT SNOW  19  16  86 SE5       30.03R WCI  12
NEWBERRY       CLOUDY    11   7  83 E7        30.03R WCI   0
S. S. MARIE    CLOUDY    11  -3  53 E8        30.08R WCI  -1
MUNISING         N/A     20  13  74 S6        30.00R WCI  12
$$
MIZ004>006-011>014-085-270500-
CENTRAL UPPER MICHIGAN

CITY           SKY/WX    TMP DP  RH WIND       PRES   REMARKS
MANISTIQUE     CLOUDY    19  15  82 E10G16    30.01F WCI   8
ESCANABA       CLOUDY    21  18  86 E7        29.98R WCI  13
MENOMINEE      CLOUDY    25  19  80 SE7       29.95R WCI  17
SAWYER-GWINN   LGT SNOW  18  15  87 S6        29.94S WCI  10
$$
MIZ001>003-009>011-084-270500-
WESTERN UPPER MICHIGAN

CITY           SKY/WX    TMP DP  RH WIND       PRES   REMARKS
IRON MOUNTAIN  LGT SNOW  20  17  88 E6        29.92R FOG     WCI  12
HOUGHTON       CLOUDY    20  18  92 E5        29.93R WCI  13
COPPER HARBOR    N/A     24  19  81 SW7       29.97R WCI  16
IRONWOOD       CLOUDY    21  18  86 CALM      29.88R
$$

ABBREVIATIONS USED IN REMARKS
   TC - TEMPERATURE IN CELSIUS
  WCI - WIND CHILL INDEX
   HX - HEAT INDEX
  VSB - VISIBILITY



USA.gov is the U.S. government's official web portal to all federal, state and local government web resources and services.